Weather History for KTAN - December, 2012

Change the Weather History Date:

Friday, December 21, 2012

  Actual Average Record
Temperature  
Mean Temperature 46 °F -  
Max Temperature 55 °F 39 °F 62 °F (1957)
Min Temperature 37 °F 20 °F -4 °F (1955)
Degree Days  
Heating Degree Days 19    
Moisture  
Dew Point 42 °F    
Average Humidity 81    
Maximum Humidity 90    
Minimum Humidity 62    
Precipitation  
Precipitation 0.93 in - - ()
Sea Level Pressure  
Sea Level Pressure 29.37 in    
Wind  
Wind Speed 13 mph (SSE)    
Max Wind Speed 28 mph    
Max Gust Speed 45 mph    
Visibility 7 miles    
Events Rain    
Averages and records for this station are not official NWS values.
T = Trace of Precipitation, MM = Missing Value Source: NWS Daily Summary

Daily Weather History Graph

Daily Weather History Graph

Search for Another Location

Airport or City:

Trip Planner

Search our weather history database for the weather conditions in past years. The results will help you decide how hot, cold, wet, or windy it might be!

Date:

Astronomy

Dec. 21, 2012 Rise Set
Actual Time 7:08 AM EST 4:16 PM EST
Civil Twilight 6:36 AM EST 4:48 PM EST
Nautical Twilight 6:01 AM EST 5:23 PM EST
Astronomical Twilight 5:27 AM EST 5:57 PM EST
Moon 12:05 PM EST (12/21) 12:48 AM EST (12/21)
Length of Visible Light 10h 11m
Length of Day
9h 07m
Waxing Gibbous, 64% of the Moon is Illuminated
Dec 21
Waxing Gibbous
Dec 28
Full
Jan 4
Last Quarter
Jan 11
New
Jan 18
First Quarter

Hourly Weather History & Observations

Time (EST) Temp. Windchill Dew Point Humidity Pressure Visibility Wind Dir Wind Speed Gust Speed Precip Events Conditions
12:52 AM 37.9 °F 33.5 °F 34.0 °F 86% 29.97 in 10.0 mi East 5.8 mph - N/A   Overcast
1:52 AM 37.9 °F - 35.1 °F 89% 29.95 in 10.0 mi Calm Calm - 0.00 in Rain Light Rain
2:13 AM 37.9 °F 35.5 °F 35.1 °F 89% 29.93 in 10.0 mi NE 3.5 mph - 0.00 in   Overcast
2:52 AM 39.0 °F 33.4 °F 36.0 °F 89% 29.88 in 10.0 mi East 8.1 mph - 0.00 in   Overcast
3:52 AM 41.0 °F 35.2 °F 37.0 °F 86% 29.84 in 10.0 mi East 9.2 mph - N/A   Overcast
4:01 AM 42.1 °F 37.1 °F 37.9 °F 85% 29.83 in 10.0 mi East 8.1 mph - N/A   Overcast
4:52 AM 43.0 °F 36.4 °F 39.0 °F 86% 29.74 in 10.0 mi East 12.7 mph 19.6 mph 0.00 in Rain Light Rain
5:22 AM 44.1 °F 38.6 °F 37.9 °F 79% 29.76 in 10.0 mi ESE 10.4 mph 18.4 mph 0.00 in   Overcast
5:52 AM 44.1 °F 37.4 °F 39.0 °F 82% 29.71 in 10.0 mi ESE 13.8 mph - 0.00 in Rain Light Rain
6:52 AM 45.0 °F 38.9 °F 37.9 °F 76% 29.65 in 10.0 mi ESE 12.7 mph 19.6 mph 0.00 in   Overcast
7:52 AM 46.0 °F 38.8 °F 39.9 °F 79% 29.60 in 10.0 mi ESE 18.4 mph 26.5 mph N/A   Overcast
8:44 AM 46.0 °F 39.9 °F 42.1 °F 86% 29.55 in 4.0 mi ESE 13.8 mph 27.6 mph 0.10 in Rain Rain
8:52 AM 46.0 °F 39.3 °F 42.1 °F 86% 29.55 in 3.0 mi ESE 16.1 mph 25.3 mph 0.12 in Rain Heavy Rain
9:52 AM 48.9 °F - 45.0 °F 86% 29.46 in 7.0 mi ESE 21.9 mph 31.1 mph 0.09 in Rain Light Rain
10:21 AM 50.0 °F - 46.0 °F 86% 29.40 in 2.5 mi ESE 25.3 mph 38.0 mph 0.07 in Rain Rain
10:32 AM 50.0 °F - 46.0 °F 86% 29.38 in 4.0 mi ESE 26.5 mph 35.7 mph 0.09 in Rain Light Rain
10:52 AM 51.1 °F - 46.9 °F 86% 29.34 in 7.0 mi ESE 26.5 mph 41.4 mph 0.10 in Rain Light Rain
11:18 AM 51.1 °F - 48.0 °F 89% 29.31 in 1.8 mi SE 24.2 mph 40.3 mph 0.06 in Rain Heavy Rain
11:36 AM 52.0 °F - 48.0 °F 86% 29.27 in 2.5 mi ESE 20.7 mph 31.1 mph 0.11 in Rain Light Rain
11:43 AM 52.0 °F - 48.0 °F 86% 29.26 in 4.0 mi ESE 18.4 mph 31.1 mph 0.12 in Rain Light Rain
11:52 AM 52.0 °F - 48.9 °F 89% 29.24 in 2.5 mi SE 24.2 mph 35.7 mph 0.13 in Rain Rain
12:17 PM 53.1 °F - 50.0 °F 89% 29.19 in 1.8 mi SE 27.6 mph 41.4 mph 0.07 in Rain Rain
12:26 PM 54.0 °F - 50.0 °F 86% 29.18 in 3.0 mi ESE 26.5 mph 41.4 mph 0.09 in Rain Light Rain
12:41 PM 54.0 °F - 51.1 °F 90% 29.15 in 1.8 mi SE 25.3 mph 44.9 mph 0.13 in Rain Heavy Rain
12:52 PM 54.0 °F - 51.1 °F 90% 29.14 in 1.5 mi SE 25.3 mph 40.3 mph 0.18 in Rain Rain
1:01 PM 55.0 °F - 51.1 °F 86% 29.13 in 1.8 mi SE 25.3 mph 40.3 mph 0.04 in Rain Heavy Rain
1:18 PM 55.0 °F - 52.0 °F 89% 29.12 in 1.0 mi SE 27.6 mph 40.3 mph 0.20 in Rain Heavy Rain
1:33 PM 55.0 °F - 52.0 °F 89% 29.14 in 1.5 mi South 18.4 mph 32.2 mph 0.31 in Rain Heavy Rain
1:36 PM 55.0 °F - 52.0 °F 89% 29.14 in 2.0 mi SSE 13.8 mph 32.2 mph 0.31 in Rain Rain
1:43 PM 55.9 °F - 52.0 °F 87% 29.14 in 9.0 mi South 16.1 mph 31.1 mph 0.31 in Rain Light Rain
1:52 PM 55.9 °F - 50.0 °F 80% 29.14 in 10.0 mi South 11.5 mph 25.3 mph 0.31 in   Overcast
2:02 PM 55.0 °F - 50.0 °F 83% 29.14 in 10.0 mi SSW 12.7 mph 21.9 mph N/A   Overcast
2:52 PM 54.0 °F - 44.1 °F 69% 29.14 in 10.0 mi SSW 13.8 mph 27.6 mph N/A   Mostly Cloudy
3:52 PM 50.0 °F - 41.0 °F 71% 29.15 in 10.0 mi SSW 11.5 mph 28.8 mph N/A   Partly Cloudy
4:52 PM 46.0 °F 40.2 °F 37.9 °F 73% 29.17 in 10.0 mi SSW 12.7 mph 23.0 mph N/A   Mostly Cloudy
5:37 PM 46.0 °F 40.6 °F 37.9 °F 73% 29.18 in 10.0 mi SW 11.5 mph 19.6 mph N/A   Overcast
5:52 PM 46.0 °F 41.4 °F 37.9 °F 73% 29.19 in 10.0 mi SSW 9.2 mph - N/A   Overcast
6:36 PM 46.0 °F 41.0 °F 37.9 °F 73% 29.19 in 10.0 mi SSW 10.4 mph - N/A   Overcast
6:52 PM 45.0 °F 38.2 °F 36.0 °F 71% 29.20 in 10.0 mi SW 15.0 mph 23.0 mph N/A   Overcast
7:52 PM 44.1 °F 36.8 °F 33.1 °F 65% 29.22 in 10.0 mi SSW 16.1 mph 23.0 mph N/A   Overcast
8:06 PM 43.0 °F 36.0 °F 33.1 °F 68% 29.22 in 10.0 mi SW 13.8 mph 21.9 mph N/A   Overcast
8:52 PM 42.1 °F 35.2 °F 33.1 °F 70% 29.24 in 10.0 mi SW 12.7 mph 20.7 mph N/A   Overcast
9:31 PM 41.0 °F 32.8 °F 32.0 °F 70% 29.25 in 10.0 mi SW 16.1 mph 24.2 mph N/A   Overcast
9:43 PM 41.0 °F 34.7 °F 32.0 °F 70% 29.25 in 10.0 mi SW 10.4 mph - N/A   Overcast
9:52 PM 41.0 °F 34.7 °F 32.0 °F 70% 29.26 in 10.0 mi SW 10.4 mph - N/A   Overcast
10:52 PM 41.0 °F 34.3 °F 28.9 °F 62% 29.27 in 10.0 mi SW 11.5 mph 20.7 mph N/A   Overcast
11:52 PM 39.9 °F 35.1 °F 28.0 °F 63% 29.27 in 10.0 mi WSW 6.9 mph 20.7 mph N/A   Overcast